NOAA 16 DEB, 41289

Orbit data source: Space-Track

NOAA 16 DEB, 41289 is space debris in SSO originally from a launch on Thu, 21 Sep 2000 UTC launched from the Air Force Western Test Range (AFWTR). Debris objects in space refer to the collection of defunct objects orbiting the Earth. Examples of debris include non-operational satellites, rocket bodies, and fragments generated from explosions, collisions, or faulty payload assembly.

Loading next visibility...
Identifier
41289, 2000-055GR
Orbit
SSO
Country
Flag of USUS
Related business
Manufacturer
Unknown
Mission
Spacecraft
Bus & Motor
Unknown
Mass
Unknown
Launch date (UTC)
Icon of a cake. It is the launch day of the satellite!2000-09-21 (26 years ago)
Launch vehicle
Unknown
Launch site
Air Force Western Test Range (AFWTR)
Object type
Payload
Rocket body
Debris
Shape & HBR
Unknown shape, 0.1 m
Radar Cross Section
Small (<0.1 m²)

Expand to show TLE details & history
Last TLE update: 1 day ago

TLE from 1 day ago
0 NOAA 16 DEB
1 41289U 00055GR  26263.00144955  .00001678  00000-0  82331-3 0  9993
2 41289  98.6438 278.5734 0032297 339.4616  20.5260 14.18799769552160
Epoch: 2026-09-20T00:02Z
TLE epoch observation values (Epoch: 2026-09-20T00:02:05.241Z)
Latitude
0.00005°
Longitude
-80.85034°
Altitude
810.534 km
Speed
7.459 km/s
True Right ascension
18h 34m 17s
True Declination
0° 00' 00"
Sunlit
Object was in daylight at epoch
Visualization orbit readout
Latitude
Unknown
Longitude
Unknown
Altitude
Unknown
Speed
Unknown
Apparent Right ascension
Unknown
Apparent Declination
Unknown
Sunlit
N/A
Visualization observer readout
Local Sidereal Time
03:10:22
Azimuth
Unknown
Elevation
Unknown
Doppler factor
Unknown
Orbital elements
Apogee altitude
849.841 km
Perigee altitude
803.303 km
Semi-major axis
7,204.709 km
Eccentricity
0.00323
Inclination
98.6438°
RAAN
278.5734°
Arg. of periapsis
339.4616°
True anomaly
20.65626°
Mean anomaly
20.526°
Eccentric anomaly
20.59108°
Mean motion
3.5491 °/min
Orbital period
101.43 mins
BSTAR
0.00082331
Loading maneuver chart data...
Computing Atmospheric mass density...
Loading historical data...
Loading historical data...
Loading historical data...
Loading historical data...
Loading historical data...
Loading historical data...
Loading historical data...

Documentation

Showing up to 5 results
|